When you browse on this site, cookies collect data to enhance your experience and personalize the content and advertising you see.
Visit our Privacy Policy to learn more. By continuing to use the site, you agree to this use of cookies and data.
  • En España
  • Lista de países
  • Para 7 días
  • Temperatura del agua
  • Mapa Satelital
  • El tiempo en el mapa
  • Informadores
  • user-avatar
    Iniciar sesión

    Tiempo cada hora Trydent i Bolzano

    Hoy, 25 Junio, Martes

    Tiempo Temperatura Precipitaciones Viento Presión Humedad
    00:00 +21°C° 0 mm 0 mps 741 mmHg 95%
    01:00 +20°C° 0 mm 0 mps 741 mmHg 95%
    02:00 +21°C° 0 mm 0 mps 740 mmHg 95%
    03:00 +21°C° 0 mm 0 mps 740 mmHg 95%
    04:00 +21°C° 0 mm 0 mps 740 mmHg 95%
    05:00 +22°C° 0 mm 0 mps 740 mmHg 92%
    06:00 +23°C° 0 mm 0 mps 740 mmHg 89%
    07:00 +26°C° 0 mm 1 mps 741 mmHg 84%
    08:00 +28°C° 0 mm 1 mps 741 mmHg 75%
    09:00 +30°C° 0 mm 1 mps 741 mmHg 66%
    10:00 +32°C° 0 mm 1 mps 741 mmHg 57%
    11:00 +33°C° 0.1 mm 1 mps 741 mmHg 54%
    12:00 +34°C° 0.1 mm 1 mps 741 mmHg 51%
    13:00 +36°C° 0.1 mm 2 mps 741 mmHg 47%
    14:00 +36°C° 0.1 mm 2 mps 741 mmHg 48%
    15:00 +36°C° 0.1 mm 2 mps 741 mmHg 49%
    16:00 +36°C° 0.1 mm 2 mps 741 mmHg 50%
    17:00 +34°C° 0.2 mm 2 mps 741 mmHg 61%
    18:00 +32°C° 0.2 mm 1 mps 741 mmHg 72%
    19:00 +30°C° 0.2 mm 1 mps 741 mmHg 82%
    20:00 +28°C° 0.2 mm 1 mps 742 mmHg 86%
    21:00 +27°C° 0.2 mm 1 mps 742 mmHg 89%
    22:00 +25°C° 0.2 mm 1 mps 742 mmHg 93%
    23:00 +23°C° 0 mm 0 mps 742 mmHg 93%

    Mañana, 26 Junio, Miércoles

    Tiempo Temperatura Precipitaciones Viento Presión Humedad
    00:00 +22°C° 0 mm 0 mps 743 mmHg 92%
    01:00 +22°C° 0 mm 0 mps 743 mmHg 92%
    02:00 +24°C° 0 mm 1 mps 743 mmHg 91%
    03:00 +23°C° 0 mm 1 mps 742 mmHg 91%
    04:00 +23°C° 0 mm 1 mps 742 mmHg 90%
    05:00 +25°C° 0 mm 1 mps 742 mmHg 85%
    06:00 +24°C° 0 mm 0 mps 742 mmHg 80%
    07:00 +26°C° 0 mm 0 mps 743 mmHg 75%
    08:00 +29°C° 0 mm 0 mps 743 mmHg 65%
    09:00 +33°C° 0 mm 1 mps 743 mmHg 54%
    10:00 +36°C° 0 mm 1 mps 743 mmHg 43%
    11:00 +37°C° 0 mm 1 mps 743 mmHg 39%
    12:00 +39°C° 0 mm 1 mps 742 mmHg 35%
    13:00 +40°C° 0 mm 1 mps 742 mmHg 31%
    14:00 +40°C° 0.1 mm 2 mps 742 mmHg 32%
    15:00 +39°C° 0.1 mm 2 mps 742 mmHg 34%
    16:00 +39°C° 0.1 mm 2 mps 742 mmHg 35%
    17:00 +37°C° 0.1 mm 2 mps 742 mmHg 48%
    18:00 +34°C° 0.1 mm 1 mps 742 mmHg 62%
    19:00 +32°C° 0.1 mm 1 mps 742 mmHg 76%
    20:00 +30°C° 0.1 mm 1 mps 742 mmHg 80%
    21:00 +28°C° 0.1 mm 1 mps 742 mmHg 83%
    22:00 +27°C° 0.1 mm 1 mps 743 mmHg 87%
    23:00 +26°C° 0 mm 1 mps 742 mmHg 85%

    Pasado mañana, 27 Junio, Jueves

    Tiempo Temperatura Precipitaciones Viento Presión Humedad
    00:00 +26°C° 0 mm 1 mps 742 mmHg 82%
    01:00 +25°C° 0 mm 1 mps 742 mmHg 80%
    02:00 +25°C° 0 mm 1 mps 742 mmHg 78%
    03:00 +25°C° 0 mm 1 mps 741 mmHg 75%
    04:00 +25°C° 0 mm 1 mps 741 mmHg 73%
    05:00 +26°C° 0 mm 1 mps 741 mmHg 69%
    06:00 +28°C° 0 mm 1 mps 741 mmHg 66%
    07:00 +30°C° 0 mm 1 mps 741 mmHg 62%
    08:00 +32°C° 0 mm 1 mps 741 mmHg 53%
    09:00 +35°C° 0 mm 1 mps 741 mmHg 43%
    10:00 +37°C° 0 mm 1 mps 740 mmHg 33%
    11:00 +40°C° 0 mm 1 mps 740 mmHg 29%
    12:00 +41°C° 0 mm 1 mps 740 mmHg 26%
    13:00 +42°C° 0 mm 2 mps 740 mmHg 22%
    14:00 +41°C° 0 mm 2 mps 740 mmHg 22%
    15:00 +41°C° 0 mm 2 mps 739 mmHg 23%
    16:00 +42°C° 0 mm 3 mps 739 mmHg 23%
    17:00 +38°C° 0 mm 2 mps 739 mmHg 32%
    18:00 +36°C° 0 mm 2 mps 738 mmHg 42%
    19:00 +33°C° 0 mm 1 mps 738 mmHg 51%
    20:00 +31°C° 0 mm 2 mps 738 mmHg 53%
    21:00 +29°C° 0 mm 2 mps 738 mmHg 55%
    22:00 +28°C° 0 mm 2 mps 739 mmHg 57%
    23:00 +27°C° 0 mm 2 mps 739 mmHg 60%

    28 Junio, Viernes

    Tiempo Temperatura Precipitaciones Viento Presión Humedad
    00:00 +26°C° 0 mm 2 mps 739 mmHg 63%
    01:00 +25°C° 0 mm 2 mps 739 mmHg 66%
    02:00 +25°C° 0 mm 2 mps 738 mmHg 68%
    03:00 +25°C° 0 mm 2 mps 738 mmHg 70%
    04:00 +24°C° 0 mm 2 mps 738 mmHg 72%
    05:00 +26°C° 0 mm 2 mps 738 mmHg 70%
    06:00 +27°C° 0 mm 1 mps 738 mmHg 67%
    07:00 +29°C° 0 mm 1 mps 738 mmHg 64%
    08:00 +31°C° 0 mm 1 mps 738 mmHg 56%
    09:00 +33°C° 0 mm 1 mps 738 mmHg 47%
    10:00 +35°C° 0 mm 1 mps 738 mmHg 39%
    11:00 +36°C° 0 mm 1 mps 738 mmHg 36%
    12:00 +37°C° 0 mm 1 mps 738 mmHg 32%
    13:00 +39°C° 0 mm 1 mps 738 mmHg 29%
    14:00 +38°C° 0.1 mm 2 mps 737 mmHg 32%
    15:00 +38°C° 0.1 mm 2 mps 737 mmHg 36%
    16:00 +37°C° 0.1 mm 2 mps 737 mmHg 39%
    17:00 +35°C° 0.5 mm 2 mps 737 mmHg 52%
    18:00 +32°C° 0.5 mm 1 mps 737 mmHg 65%
    19:00 +30°C° 0.5 mm 1 mps 738 mmHg 79%
    20:00 +28°C° 0.3 mm 1 mps 738 mmHg 80%
    21:00 +26°C° 0.3 mm 1 mps 738 mmHg 81%
    22:00 +24°C° 0.3 mm 1 mps 739 mmHg 82%
    23:00 +23°C° 0 mm 1 mps 739 mmHg 82%

    29 Junio, Sábado

    Tiempo Temperatura Precipitaciones Viento Presión Humedad
    00:00 +23°C° 0 mm 1 mps 739 mmHg 83%
    01:00 +22°C° 0 mm 1 mps 739 mmHg 83%
    02:00 +22°C° 0 mm 1 mps 739 mmHg 84%
    03:00 +22°C° 0 mm 1 mps 738 mmHg 84%
    04:00 +21°C° 0 mm 1 mps 738 mmHg 85%
    05:00 +21°C° 0 mm 0 mps 738 mmHg 81%
    06:00 +22°C° 0 mm 0 mps 738 mmHg 77%
    07:00 +24°C° 0 mm 0 mps 738 mmHg 73%
    08:00 +25°C° 0 mm 0 mps 738 mmHg 67%
    09:00 +29°C° 0 mm 1 mps 738 mmHg 61%
    10:00 +31°C° 0 mm 1 mps 739 mmHg 55%
    11:00 +32°C° 0 mm 2 mps 738 mmHg 52%
    12:00 +34°C° 0 mm 2 mps 738 mmHg 49%
    13:00 +35°C° 0 mm 2 mps 738 mmHg 46%
    14:00 +35°C° 0 mm 2 mps 738 mmHg 48%
    15:00 +34°C° 0 mm 2 mps 738 mmHg 51%
    16:00 +34°C° 0 mm 3 mps 738 mmHg 53%
    17:00 +32°C° 0 mm 2 mps 738 mmHg 62%
    18:00 +30°C° 0 mm 2 mps 738 mmHg 71%
    19:00 +28°C° 0 mm 2 mps 738 mmHg 81%
    20:00 +27°C° 0 mm 1 mps 738 mmHg 86%
    21:00 +25°C° 0 mm 1 mps 738 mmHg 91%
    22:00 +22°C° 0 mm 0 mps 739 mmHg 96%
    23:00 +22°C° 0 mm 0 mps 739 mmHg 97%

    30 Junio, Domingo

    Tiempo Temperatura Precipitaciones Viento Presión Humedad
    00:00 +22°C° 0 mm 0 mps 739 mmHg 97%
    01:00 +21°C° 0 mm 0 mps 739 mmHg 97%
    02:00 +21°C° 0 mm 0 mps 738 mmHg 97%
    03:00 +21°C° 0 mm 0 mps 738 mmHg 96%
    04:00 +21°C° 0 mm 0 mps 738 mmHg 96%
    05:00 +22°C° 0 mm 0 mps 738 mmHg 92%
    06:00 +23°C° 0 mm 0 mps 738 mmHg 88%
    07:00 +24°C° 0 mm 0 mps 738 mmHg 84%
    08:00 +27°C° 0 mm 0 mps 738 mmHg 75%
    09:00 +31°C° 0 mm 1 mps 738 mmHg 65%
    10:00 +33°C° 0 mm 1 mps 738 mmHg 56%
    11:00 +34°C° 0.1 mm 1 mps 738 mmHg 53%
    12:00 +36°C° 0.1 mm 2 mps 738 mmHg 49%
    13:00 +37°C° 0.1 mm 2 mps 738 mmHg 46%
    14:00 +37°C° 0.1 mm 2 mps 738 mmHg 47%
    15:00 +36°C° 0.1 mm 2 mps 738 mmHg 48%
    16:00 +36°C° 0.1 mm 2 mps 738 mmHg 49%
    17:00 +34°C° 0.3 mm 2 mps 738 mmHg 61%
    18:00 +31°C° 0.3 mm 1 mps 738 mmHg 72%
    19:00 +30°C° 0.3 mm 1 mps 738 mmHg 83%
    20:00 +28°C° 0.2 mm 1 mps 738 mmHg 86%
    21:00 +27°C° 0.2 mm 1 mps 738 mmHg 89%
    22:00 +23°C° 0.2 mm 0 mps 739 mmHg 92%
    23:00 +23°C° 0 mm 0 mps 739 mmHg 92%
    Mostrar más